星链-1419 (STARLINK-1419 )

导读

STARLINK-1419是美国太空探索技术公司(SpaceX)星链(Starlink)星座的成员卫星,于2020年6月4日发射升空。作为低轨互联网星座的组成部分,它承担着为全球提供高速互联网服务的任务,尤其支持偏远地区通信、航海航空联网等场景,是星链大规模组网过程中的重要发射单元,推进了全球卫星互联网覆盖进程。

基本信息
目录编号:
45694
目录名称:
STARLINK-1419
国际标识:
2020-035AP
轨道中心:
EARTH
卫星名称:
星链-1419
卫星全名:
星链-1419 (STARLINK-1419 )
卫星状态:
已陨落 最后检测时间 2023-09-24
发射日期:
2020-06-04 UTC
国别 :
美国 (US)
星等 :
--
该卫星已列入 空间交会检测服务 Space Conjunction Data Service (SCDS) ,当前飞行风险评估等级: 无高风险
轨道信息
数据来源 国际轨道数据
星历时间: 2023-09-24T14:46:50+0800
轨道信息已过期1084天
半长轴: 6600.235km
偏心率: 0.0016256
轨道倾角: 53.010°
近地点辐角 280.710°
升交点赤经 72.619°
平近点角 207.432°
近地点: 211.37km
远地点: 232.83km
周期: 88.940分钟
每日圈数: 16.190629
详细信息
固有亮度:
5
最大亮度:
2.5
卫星平台:
Starlink V1.0
覆盖范围:
全球
运营商:
太空探索技术公司
运营商所在国:
美国
制造商(研发单位):
太空探索技术公司
制造商所在国:
美国
使用方式:
暂无
卫星简介
星链(Starlink)计划是由太空探索技术公司(SpaceX)提出的一个巨型低轨卫星互联网星座项目,计划在2019年至2024年间在太空搭建由约1.2万颗卫星组成的“星链”网络,其中1584颗将部署在地球上空550千米处的近地轨道,并从2020年开始工作。该卫星已陨落。
与全量物体交会距离演化趋势
与全量物体交会风险概率演化趋势